Pine Belt, MS

6:23 PM CDT on May 29, 2017 (GMT -0500)
Hattiesburg-Laurel Regional

Weather History for KPIB - December, 2012

Change the Weather History Date:

Sunday, December 23, 2012

  Actual Average Record
Temperature  
Mean Temperature 48 °F -  
Max Temperature 60 °F 55 °F 75 °F (1996)
Min Temperature 37 °F 34 °F 23 °F (2000)
Degree Days  
Heating Degree Days 16    
Moisture  
Dew Point 43 °F    
Average Humidity 75    
Maximum Humidity 87    
Minimum Humidity 61    
Precipitation  
Precipitation 0.00 in - - ()
Sea Level Pressure  
Sea Level Pressure 30.12 in    
Wind  
Wind Speed 4 mph (SSE)    
Max Wind Speed 12 mph    
Max Gust Speed 18 mph    
Visibility 10 miles    
Events      
Averages and records for this station are not official NWS values.
T = Trace of Precipitation, MM = Missing Value Source: NWS Daily Summary

Daily Weather History Graph

Daily Weather History Graph

Search for Another Location

Airport or City:

Trip Planner

Search our weather history database for the weather conditions in past years. The results will help you decide how hot, cold, wet, or windy it might be!

Date:

Astronomy

Dec. 23, 2012 Rise Set
Actual Time 6:53 AM CST 4:59 PM CST
Civil Twilight 6:26 AM CST 5:26 PM CST
Nautical Twilight 5:56 AM CST 5:57 PM CST
Astronomical Twilight 5:26 AM CST 6:26 PM CST
Moon 1:43 PM CST (12/23) 2:44 AM CST (12/23)
Length of Visible Light 10h 59m
Length of Day
10h 06m
Waxing Gibbous, 82% of the Moon is Illuminated
Dec 23
Waxing Gibbous
Dec 28
Full
Jan 4
Last Quarter
Jan 11
New
Jan 18
First Quarter

Hourly Weather History & Observations

Time (CST) Temp. Windchill Dew Point Humidity Pressure Visibility Wind Dir Wind Speed Gust Speed Precip Events Conditions
12:15 AM 37.4 °F - 32.0 °F 81% 30.23 in 10.0 mi Calm Calm - N/A   Clear
12:35 AM 37.4 °F - 30.2 °F 75% 30.22 in 10.0 mi Calm Calm - N/A   Clear
12:55 AM 39.2 °F - 33.8 °F 81% 30.22 in 10.0 mi Calm Calm - N/A   Clear
1:15 AM 39.2 °F 37.0 °F 33.8 °F 81% 30.22 in 10.0 mi SW 3.5 mph - N/A   Clear
1:35 AM 41.0 °F 39.0 °F 30.2 °F 65% 30.21 in 10.0 mi SW 3.5 mph - N/A   Clear
1:55 AM 42.8 °F - 30.2 °F 61% 30.22 in 10.0 mi Calm Calm - N/A   Clear
2:15 AM 41.0 °F - 32.0 °F 70% 30.21 in 10.0 mi Calm Calm - N/A   Clear
2:35 AM 41.0 °F - 33.8 °F 76% 30.21 in 10.0 mi Calm Calm - N/A   Clear
2:55 AM 41.0 °F - 33.8 °F 76% 30.22 in 10.0 mi Calm Calm - N/A   Clear
3:15 AM 41.0 °F - 33.8 °F 76% 30.21 in 10.0 mi Calm Calm - N/A   Clear
3:35 AM 39.2 °F - 33.8 °F 81% 30.21 in 10.0 mi Calm Calm - N/A   Clear
3:55 AM 39.2 °F - 33.8 °F 81% 30.21 in 10.0 mi Calm Calm - N/A   Clear
4:15 AM 37.4 °F - 33.8 °F 87% 30.21 in 10.0 mi Calm Calm - N/A   Clear
4:35 AM 39.2 °F - 35.6 °F 87% 30.19 in 10.0 mi Calm Calm - N/A   Clear
4:55 AM 39.2 °F - 35.6 °F 87% 30.20 in 10.0 mi Calm Calm - N/A   Partly Cloudy
5:15 AM 41.0 °F - 35.6 °F 81% 30.21 in 10.0 mi Calm Calm - N/A   Partly Cloudy
5:35 AM 39.2 °F - 35.6 °F 87% 30.21 in 10.0 mi Calm Calm - N/A   Clear
5:55 AM 41.0 °F - 35.6 °F 81% 30.21 in 10.0 mi Calm Calm - N/A   Clear
6:15 AM 41.0 °F - 37.4 °F 87% 30.21 in 10.0 mi Calm Calm - N/A   Partly Cloudy
6:55 AM 41.0 °F 39.0 °F 35.6 °F 81% 30.20 in 10.0 mi SSE 3.5 mph - N/A   Partly Cloudy
7:15 AM 39.2 °F 35.9 °F 33.8 °F 81% 30.20 in 10.0 mi South 4.6 mph - N/A   Scattered Clouds
7:35 AM 41.0 °F - 35.6 °F 81% 30.20 in 10.0 mi Calm Calm - N/A   Overcast
7:55 AM 44.6 °F 42.2 °F 35.6 °F 71% 30.20 in 10.0 mi SE 4.6 mph - N/A   Scattered Clouds
8:15 AM 44.6 °F 43.1 °F 35.6 °F 71% 30.20 in 10.0 mi South 3.5 mph - N/A   Scattered Clouds
8:35 AM 46.4 °F 42.9 °F 37.4 °F 71% 30.20 in 10.0 mi SSE 6.9 mph - N/A   Scattered Clouds
8:55 AM 48.2 °F - 35.6 °F 62% 30.21 in 10.0 mi SSE 4.6 mph - N/A   Partly Cloudy
9:15 AM 48.2 °F - 37.4 °F 66% 30.20 in 10.0 mi SSE 4.6 mph - N/A   Partly Cloudy
9:35 AM 50.0 °F - 37.4 °F 62% 30.20 in 10.0 mi SSE 6.9 mph - N/A   Partly Cloudy
9:55 AM 50.0 °F - 39.2 °F 66% 30.20 in 10.0 mi SSE 10.4 mph - N/A   Partly Cloudy
10:15 AM 51.8 °F - 39.2 °F 62% 30.20 in 10.0 mi SSE 8.1 mph - N/A   Mostly Cloudy
10:35 AM 51.8 °F - 39.2 °F 62% 30.19 in 10.0 mi SSE 9.2 mph - N/A   Overcast
10:55 AM 53.6 °F - 41.0 °F 62% 30.17 in 10.0 mi South 10.4 mph - N/A   Mostly Cloudy
11:15 AM 55.4 °F - 42.8 °F 63% 30.16 in 10.0 mi South 9.2 mph - N/A   Mostly Cloudy
11:35 AM 55.4 °F - 42.8 °F 63% 30.15 in 10.0 mi South 9.2 mph - N/A   Overcast
11:55 AM 55.4 °F - 42.8 °F 63% 30.14 in 10.0 mi South 6.9 mph - N/A   Overcast
12:15 PM 55.4 °F - 42.8 °F 63% 30.13 in 10.0 mi SSE 5.8 mph - N/A   Overcast
12:35 PM 57.2 °F - 44.6 °F 63% 30.12 in 10.0 mi South 6.9 mph - N/A   Overcast
12:55 PM 57.2 °F - 44.6 °F 63% 30.11 in 10.0 mi South 6.9 mph - N/A   Overcast
1:15 PM 57.2 °F - 46.4 °F 67% 30.10 in 10.0 mi SSE 9.2 mph - N/A   Overcast
1:35 PM 59.0 °F - 46.4 °F 63% 30.09 in 10.0 mi South 9.2 mph - N/A   Overcast
1:55 PM 57.2 °F - 46.4 °F 67% 30.08 in 10.0 mi SSE 8.1 mph - N/A   Mostly Cloudy
2:15 PM 57.2 °F - 46.4 °F 67% 30.08 in 10.0 mi SSE 6.9 mph - N/A   Mostly Cloudy
2:35 PM 57.2 °F - 48.2 °F 72% 30.07 in 10.0 mi SSE 6.9 mph - N/A   Overcast
2:55 PM 55.4 °F - 50.0 °F 82% 30.07 in 7.0 mi SE 3.5 mph - N/A   Overcast
3:15 PM 55.4 °F - 50.0 °F 82% 30.05 in 10.0 mi ESE 5.8 mph - N/A   Overcast
3:35 PM 55.4 °F - 50.0 °F 82% 30.05 in 10.0 mi ESE 4.6 mph - N/A   Overcast
3:55 PM 57.2 °F - 51.8 °F 82% 30.05 in 10.0 mi SE 4.6 mph - N/A   Mostly Cloudy
4:15 PM 57.2 °F - 50.0 °F 77% 30.05 in 10.0 mi Calm Calm - N/A   Overcast
4:35 PM 57.2 °F - 51.8 °F 82% 30.04 in 10.0 mi SE 4.6 mph - N/A   Overcast
4:55 PM 57.2 °F - 51.8 °F 82% 30.04 in 10.0 mi SSE 3.5 mph - N/A   Overcast
5:15 PM 57.2 °F - 51.8 °F 82% 30.03 in 10.0 mi SE 5.8 mph - N/A   Mostly Cloudy
5:35 PM 57.2 °F - 51.8 °F 82% 30.03 in 10.0 mi SSE 6.9 mph - N/A   Mostly Cloudy
5:55 PM 57.2 °F - 51.8 °F 82% 30.03 in 10.0 mi SSE 6.9 mph - N/A   Mostly Cloudy
6:15 PM 59.0 °F - 51.8 °F 77% 30.02 in 10.0 mi SSE 10.4 mph - N/A   Mostly Cloudy
6:35 PM 59.0 °F - 51.8 °F 77% 30.02 in 10.0 mi SSE 11.5 mph - N/A   Overcast
6:55 PM 59.0 °F - 51.8 °F 77% 30.02 in 10.0 mi SSE 10.4 mph 16.1 mph N/A   Mostly Cloudy
7:15 PM 60.8 °F - 51.8 °F 72% 30.03 in 10.0 mi South 10.4 mph - N/A   Mostly Cloudy
7:35 PM 60.8 °F - 51.8 °F 72% 30.02 in 10.0 mi SSE 9.2 mph 18.4 mph N/A   Mostly Cloudy
7:55 PM 60.8 °F - 51.8 °F 72% 30.02 in 10.0 mi South 10.4 mph - N/A   Overcast
8:15 PM 60.8 °F - 51.8 °F 72% 30.02 in 10.0 mi South 9.2 mph - N/A   Mostly Cloudy
8:55 PM 60.8 °F - 51.8 °F 72% 30.02 in 10.0 mi South 10.4 mph - N/A   Mostly Cloudy
9:15 PM 60.8 °F - 51.8 °F 72% 30.01 in 10.0 mi South 9.2 mph - N/A   Overcast
9:35 PM 59.0 °F - 51.8 °F 77% 30.01 in 10.0 mi South 9.2 mph - N/A   Mostly Cloudy
9:55 PM 59.0 °F - 51.8 °F 77% 30.01 in 10.0 mi South 6.9 mph - N/A   Mostly Cloudy
10:15 PM 59.0 °F - 51.8 °F 77% 30.01 in 10.0 mi South 8.1 mph - N/A   Mostly Cloudy
10:35 PM 59.0 °F - 51.8 °F 77% 30.01 in 10.0 mi South 8.1 mph - N/A   Mostly Cloudy
10:55 PM 59.0 °F - 53.6 °F 82% 30.00 in 10.0 mi South 8.1 mph - N/A   Mostly Cloudy
11:15 PM 59.0 °F - 53.6 °F 82% 29.99 in 10.0 mi South 6.9 mph - N/A   Scattered Clouds
11:35 PM 59.0 °F - 53.6 °F 82% 29.99 in 10.0 mi South 8.1 mph - N/A   Partly Cloudy
11:55 PM 59.0 °F - 53.6 °F 82% 29.98 in 10.0 mi South 9.2 mph - N/A   Scattered Clouds